Flag for Canada Weather past 2 weeks in Regina, Saskatchewan, Canada

61 °F

Partly sunny.

Feels Like: 61 °F
Forecast: N/A
Wind: 15 mph from West

Location: Regina Weather Station

Current Time: Oct 13, 2015 at 4:07:14 PM

Latest Report: Oct 13, 2015 at 3:00 PM

Visibility: 15 mi

Pressure: 29.98 "Hg (28.01 "Hg at 577m altitude)

Humidity: 36%

Dew point: 34 °F

Location of ReginaLocation

Historic Weather in Regina — Graph


Regina temperature yesterday

Maximum temperature yesterday: 52 °F (at 3:00 PM)
Minimum temperature yesterday: 34 °F (at 8:00 AM)
Average temperature yesterday: 43 °F

Past Weeks' High & Low Weather Summary

High79 °F (Oct 10, 4:00 PM)100% (Sep 30, 8:00 AM)30.32 "Hg (Sep 30, 8:00 AM)
Low27 °F (Oct 6, 6:00 AM)33% (Sep 29, 2:00 PM)29.30 "Hg (Oct 11, 6:00 PM)
Average48 °F77%30.01 "Hg
* Reported Sep 28 2:00 PM — Oct 13 2:00 PM, Regina, Weather by CustomWeather, © 2015

Note: Actual official high and low records may vary slightly from our data, if they occured in-between our weather recording intervals... More about our weather records


Regina weather history for previous 24 hours

Time TempWeatherWind HumidityBarometerVisibility
2:00 PM
Tue, Oct 13
59 °FPartly sunny.17 mph36%29.98 "Hg15 mi
1:00 PM59 °FPartly sunny.15 mph42%29.99 "Hg15 mi
12:00 PM57 °FPassing clouds.16 mph51%30.01 "Hg15 mi
11:00 AM54 °FPassing clouds.13 mph58%30.00 "Hg15 mi
10:00 AM48 °FPassing clouds.15 mph76%30.02 "Hg15 mi
9:00 AM45 °FSunny.12 mph81%30.01 "Hg15 mi
8:00 AM34 °FPassing clouds.No wind100%30.01 "Hg15 mi
7:00 AM32 °FPassing clouds.7 mph100%30.01 "Hg15 mi
6:00 AM32 °FClear.7 mph100%29.98 "Hg15 mi
5:00 AM34 °FClear.8 mph93%29.95 "Hg15 mi
4:00 AM32 °FClear.7 mph100%29.93 "Hg15 mi
3:00 AM34 °FClear.8 mph93%29.91 "Hg15 mi
2:00 AM36 °FClear.3 mph87%29.88 "Hg15 mi
1:00 AM41 °FClear.2 mph81%29.86 "Hg15 mi
12:00 AM41 °FClear.3 mph81%29.84 "Hg15 mi
11:00 PM
Mon, Oct 12
45 °FPassing clouds.10 mph71%29.83 "Hg15 mi
10:00 PM41 °FPassing clouds.9 mph81%29.86 "Hg15 mi
9:00 PM45 °FPartly cloudy.10 mph76%29.85 "Hg15 mi
8:00 PM45 °FPassing clouds.9 mph76%29.86 "Hg15 mi
7:00 PM45 °FPassing clouds.7 mph76%29.87 "Hg15 mi
6:00 PM48 °FPartly sunny.5 mph66%29.89 "Hg15 mi
5:00 PM52 °FPartly sunny.2 mph58%29.90 "Hg15 mi
4:00 PM52 °FScattered clouds.6 mph54%29.92 "Hg15 mi
Weather by CustomWeather, © 2015

See weather overviewHow to use our weather pages